Погода в Красноармейском

Россия / Республика Крым     45°59′36″N   34°01′46″E
темп.,
°C
ветер,
м/с
пор.,
м/с
влажн.,
%
обл.,
%
осадки,
мм/ч
давл.,
гПа
погр.,
м
25 февраля, чт
чт2500:00−2юв226786 0.0 1037129
03:00−2юв116658 0.0 103690
06:00−2юз116645 0.0 103656
09:00−1ю236166 0.0 1035192
12:00+2юз235093 0.0 1035344
15:00+2зюз356096 0.0 1034291
18:00+2зюз3687100 0.1 1032227
21:00+2юз479194 0.1 1032175
26 февраля, пт
пт2600:00+3юз4696100 0.0 1031141
03:00+4зюз5797100 0.2 1030138
06:00+4з3697100 0.1 1029133
09:00+5зюз3696100 0.2 1029150
12:00+8з578287 0.0 1028448
15:00+9з797651 0.0 1026442
18:00+8зюз610830 0.0 1025294
21:00+6юз510920 0.0 1024252
27 февраля, сб
сб2700:00+6юз712933 0.0 1023324
03:00+6зюз613932 0.0 1022365
06:00+6зюз7139422 0.0 1020357
09:00+7зюз6109243 0.0 1019457
12:00+7з6888100 0.0 1018454
15:00+8з5784100 0.0 1017384
18:00+7з689088 0.1 1017271
21:00+6ссз579394 3.4 1017386
28 февраля, вс
вс2800:00+5ссз6985100 0.4 1018468
03:00+3ссз598682 0.4 1018307
06:00+2ссз598852 0.0 1019326
09:00+3сз588775 0.0 1020466
12:00+3сз5786100 0.1 1021498
15:00+6сз576699 0.3 1021965
18:00+4ссз5870100 0.1 1022783
21:00+2ссз6896100 0.4 1024417
1 марта, пн
пн100:00+1ссз5874100 0.3 1026403
03:000ссз587683 0.3 1026404
06:000ссз587559 0.0 1027356
09:000с576961 0.0 1029718
12:00+2с455915 0.0 10301026
15:00+3с445757 0.0 10311200
18:00+3ссв4561100 0.0 10321205
21:00+2ссв5566100 0.0 1034731